| time (UTC) | temp F | wind direction | speed MPH | gust MPH | rain 1hr in | rain 24hr in | rain mn in | humidity % | barometer mb |
| 20260507001758 | 49 | 323 | 3.0 | 6.0 | 0.00 | 0.76 | 0.00 | 89 | 1012.3 |
| 20260507000757 | 49 | 336 | 3.0 | 5.0 | 0.00 | 0.76 | 0.00 | 89 | 1012.2 |
| 20260506235258 | 49 | 320 | 3.0 | 4.0 | 0.00 | 0.76 | 0.00 | 89 | 1012.3 |
| 20260506233757 | 49 | 316 | 4.0 | 5.0 | 0.00 | 0.82 | 0.00 | 90 | 1012.3 |
| 20260506232758 | 49 | 32 | 0.0 | 6.0 | 0.00 | 0.82 | 0.00 | 90 | 1012.2 |
| 20260506230757 | 49 | 326 | 4.0 | 6.0 | 0.00 | 0.82 | 0.00 | 90 | 1012.1 |
| 20260506230258 | 49 | 316 | 3.0 | 5.0 | 0.00 | 0.82 | 0.00 | 90 | 1011.9 |
| 20260506223757 | 49 | 324 | 4.0 | 6.0 | 0.00 | 0.90 | 0.87 | 91 | 1011.9 |
| 20260506221258 | 49 | 330 | 5.0 | 8.0 | 0.00 | 0.90 | 0.87 | 91 | 1011.7 |
| 20260506220757 | 49 | 320 | 7.0 | 7.0 | 0.00 | 0.90 | 0.87 | 91 | 1011.8 |
| 20260506214758 | 49 | 337 | 9.0 | 12.0 | 0.00 | 0.90 | 0.87 | 91 | 1011.7 |
| 20260506213757 | 49 | 336 | 6.0 | 12.0 | 0.00 | 0.96 | 0.87 | 92 | 1011.7 |
| 20260506212258 | 49 | 319 | 5.0 | 8.0 | 0.00 | 0.96 | 0.87 | 92 | 1011.6 |
| 20260506210757 | 49 | 303 | 6.0 | 8.0 | 0.00 | 0.96 | 0.87 | 92 | 1011.4 |
| 20260506205758 | 49 | 313 | 7.0 | 8.0 | 0.00 | 0.96 | 0.87 | 92 | 1011.4 |
| 20260506203758 | 49 | 350 | 4.0 | 8.0 | 0.00 | 0.97 | 0.87 | 92 | 1011.3 |
| 20260506203258 | 49 | 29 | 7.0 | 9.0 | 0.00 | 0.97 | 0.87 | 92 | 1011.2 |
| 20260506200758 | 49 | 336 | 4.0 | 9.0 | 0.00 | 0.97 | 0.87 | 92 | 1010.8 |
| 20260506194259 | 49 | 277 | 2.0 | 9.0 | 0.00 | 0.97 | 0.87 | 92 | 1010.7 |
| 20260506193758 | 49 | 316 | 5.0 | 9.0 | 0.01 | 0.97 | 0.87 | 92 | 1010.7 |
| 20260506191830 | 49 | 340 | 5.0 | 13.0 | 0.01 | 0.97 | 0.87 | 92 | 1010.5 |
| 20260506191759 | 49 | 340 | 5.0 | 13.0 | 0.01 | 0.97 | 0.87 | 92 | 1010.5 |
| 20260506190758 | 49 | 315 | 11.0 | 13.0 | 0.01 | 0.97 | 0.87 | 92 | 1010.3 |
| 20260506185259 | 50 | 327 | 4.0 | 7.0 | 0.01 | 0.97 | 0.87 | 92 | 1010.2 |
| 20260506183758 | 50 | 345 | 7.0 | 9.0 | 0.00 | 0.96 | 0.86 | 92 | 1010.1 |
| 20260506182759 | 50 | 219 | 4.0 | 10.0 | 0.01 | 0.96 | 0.86 | 92 | 1009.9 |
| 20260506180758 | 50 | 309 | 8.0 | 12.0 | 0.01 | 0.96 | 0.86 | 91 | 1009.7 |
| 20260506180259 | 50 | 343 | 7.0 | 11.0 | 0.01 | 0.96 | 0.86 | 91 | 1009.6 |
| 20260506173758 | 50 | 352 | 2.0 | 9.0 | 0.01 | 0.96 | 0.86 | 91 | 1009.3 |
| 20260506171259 | 51 | 39 | 1.0 | 8.0 | 0.00 | 0.95 | 0.85 | 90 | 1009.2 |
| 20260506170758 | 51 | 317 | 5.0 | 7.0 | 0.00 | 0.95 | 0.85 | 89 | 1009.1 |
| 20260506164759 | 51 | 358 | 1.0 | 7.0 | 0.00 | 0.95 | 0.85 | 88 | 1009.1 |
| 20260506163758 | 51 | 319 | 4.0 | 7.0 | 0.00 | 0.95 | 0.85 | 88 | 1009.1 |
| 20260506162259 | 51 | 317 | 6.0 | 9.0 | 0.00 | 0.95 | 0.85 | 87 | 1009.0 |
| 20260506160758 | 51 | 315 | 6.0 | 11.0 | 0.00 | 0.95 | 0.85 | 87 | 1008.8 |
| 20260506155759 | 51 | 358 | 2.0 | 13.0 | 0.00 | 0.95 | 0.85 | 87 | 1008.7 |
| 20260506153758 | 51 | 282 | 3.0 | 8.0 | 0.00 | 0.95 | 0.85 | 88 | 1008.9 |
| 20260506153259 | 51 | 305 | 2.0 | 8.0 | 0.00 | 0.95 | 0.85 | 88 | 1008.8 |
| 20260506150758 | 51 | 12 | 3.0 | 10.0 | 0.00 | 0.95 | 0.85 | 88 | 1008.7 |
| 20260506144259 | 52 | 354 | 5.0 | 12.0 | 0.01 | 0.95 | 0.85 | 87 | 1008.5 |
| 20260506143758 | 52 | 333 | 7.0 | 11.0 | 0.01 | 0.95 | 0.85 | 88 | 1008.5 |
| 20260506141802 | 53 | 4 | 6.0 | 12.0 | 0.01 | 0.95 | 0.85 | 88 | 1008.4 |
| 20260506140758 | 52 | 313 | 9.0 | 11.0 | 0.02 | 0.95 | 0.85 | 88 | 1008.4 |
| 20260506135259 | 53 | 351 | 4.0 | 11.0 | 0.03 | 0.95 | 0.85 | 90 | 1008.4 |
| 20260506133758 | 52 | 320 | 5.0 | 12.0 | 0.03 | 0.94 | 0.84 | 89 | 1008.4 |
| 20260506132759 | 52 | 343 | 6.0 | 13.0 | 0.03 | 0.94 | 0.84 | 89 | 1008.4 |
| 20260506130758 | 52 | 26 | 3.0 | 12.0 | 0.03 | 0.93 | 0.83 | 89 | 1008.2 |
| 20260506130259 | 52 | 338 | 4.0 | 15.0 | 0.04 | 0.93 | 0.83 | 89 | 1008.1 |
| 20260506123758 | 52 | 291 | 9.0 | 12.0 | 0.02 | 0.91 | 0.81 | 89 | 1008.1 |
| 20260506121259 | 52 | 329 | 10.0 | 17.0 | 0.02 | 0.90 | 0.80 | 90 | 1007.9 |
| 20260506120758 | 52 | 4 | 6.0 | 15.0 | 0.02 | 0.90 | 0.80 | 90 | 1007.9 |
| 20260506114759 | 51 | 52 | 4.0 | 16.0 | 0.02 | 0.89 | 0.79 | 91 | 1007.7 |
| 20260506113759 | 51 | 9 | 8.0 | 12.0 | 0.03 | 0.89 | 0.79 | 91 | 1007.7 |
| 20260506112259 | 52 | 322 | 7.0 | 11.0 | 0.03 | 0.88 | 0.78 | 91 | 1007.7 |
| 20260506110759 | 52 | 336 | 8.0 | 14.0 | 0.03 | 0.88 | 0.78 | 91 | 1007.6 |
| 20260506105759 | 52 | 26 | 8.0 | 14.0 | 0.02 | 0.87 | 0.77 | 91 | 1007.6 |
| 20260506103759 | 52 | 319 | 5.0 | 12.0 | 0.02 | 0.86 | 0.76 | 91 | 1007.5 |
| 20260506103259 | 52 | 334 | 7.0 | 14.0 | 0.02 | 0.86 | 0.76 | 91 | 1007.4 |
| 20260506100759 | 52 | 319 | 11.0 | 12.0 | 0.02 | 0.85 | 0.75 | 91 | 1007.3 |
| 20260506094300 | 52 | 338 | 4.0 | 9.0 | 0.02 | 0.84 | 0.74 | 92 | 1007.0 |
| 20260506093759 | 52 | 319 | 3.0 | 14.0 | 0.03 | 0.84 | 0.74 | 92 | 1007.0 |
| 20260506091801 | 52 | 312 | 8.0 | 10.0 | 0.03 | 0.84 | 0.74 | 92 | 1006.9 |
| 20260506090759 | 52 | 323 | 7.0 | 10.0 | 0.03 | 0.83 | 0.73 | 92 | 1006.8 |
| 20260506085300 | 52 | 358 | 3.0 | 12.0 | 0.03 | 0.82 | 0.72 | 93 | 1006.7 |
| 20260506083759 | 53 | 23 | 5.0 | 8.0 | 0.03 | 0.81 | 0.71 | 93 | 1006.5 |
| 20260506082800 | 52 | 355 | 4.0 | 7.0 | 0.03 | 0.81 | 0.71 | 93 | 1006.5 |
| 20260506080759 | 52 | 316 | 8.0 | 12.0 | 0.03 | 0.80 | 0.70 | 94 | 1006.4 |
| 20260506080300 | 52 | 305 | 11.0 | 14.0 | 0.04 | 0.80 | 0.70 | 94 | 1006.3 |
| 20260506071300 | 51 | 282 | 4.0 | 13.0 | 0.03 | 0.77 | 0.67 | 94 | 1006.4 |
| 20260506070759 | 51 | 28 | 6.0 | 12.0 | 0.03 | 0.77 | 0.67 | 94 | 1006.3 |
| 20260506062300 | 51 | 288 | 5.0 | 9.0 | 0.06 | 0.75 | 0.65 | 94 | 1006.2 |
| 20260506060759 | 51 | 8 | 5.0 | 8.0 | 0.06 | 0.74 | 0.64 | 94 | 1006.1 |
| 20260506050759 | 51 | 330 | 6.0 | 10.0 | 0.05 | 0.68 | 0.58 | 95 | 1006.0 |
| 20260506044300 | 51 | 113 | 2.0 | 7.0 | 0.08 | 0.66 | 0.56 | 95 | 1005.9 |
| 20260506043759 | 51 | 268 | 1.0 | 8.0 | 0.09 | 0.67 | 0.56 | 95 | 1006.0 |
| 20260506041801 | 51 | 317 | 1.0 | 7.0 | 0.13 | 0.65 | 0.54 | 95 | 1005.9 |
| 20260506040759 | 51 | 341 | 7.0 | 12.0 | 0.14 | 0.64 | 0.53 | 95 | 1005.9 |
| 20260506035300 | 51 | 16 | 3.0 | 12.0 | 0.13 | 0.61 | 0.50 | 95 | 1005.8 |
| 20260506033759 | 51 | 326 | 0.0 | 9.0 | 0.13 | 0.58 | 0.47 | 95 | 1005.9 |
| 20260506032800 | 51 | 268 | 5.0 | 10.0 | 0.10 | 0.54 | 0.43 | 95 | 1006.0 |
| 20260506030759 | 51 | 317 | 5.0 | 10.0 | 0.10 | 0.50 | 0.39 | 95 | 1006.1 |
| 20260506030300 | 51 | 316 | 5.0 | 9.0 | 0.11 | 0.49 | 0.38 | 94 | 1006.0 |
| 20260506023800 | 51 | 289 | 5.0 | 9.0 | 0.15 | 0.47 | 0.34 | 94 | 1006.3 |
| 20260506021300 | 51 | 336 | 4.0 | 9.0 | 0.14 | 0.43 | 0.30 | 94 | 1006.4 |
| 20260506020800 | 51 | 340 | 6.0 | 10.0 | 0.14 | 0.42 | 0.29 | 94 | 1006.4 |
| 20260506014800 | 51 | 286 | 8.0 | 9.0 | 0.09 | 0.35 | 0.22 | 94 | 1006.5 |
| 20260506013800 | 51 | 323 | 7.0 | 10.0 | 0.08 | 0.33 | 0.19 | 94 | 1006.5 |
| 20260506012353 | 51 | 307 | 4.0 | 10.0 | 0.07 | 0.31 | 0.17 | 94 | 1006.6 |
| 20260506012300 | 51 | 307 | 4.0 | 10.0 | 0.07 | 0.31 | 0.17 | 94 | 1006.6 |
| 20260506010800 | 51 | 315 | 3.0 | 11.0 | 0.07 | 0.29 | 0.15 | 94 | 1006.6 |
| 20260506005800 | 51 | 317 | 8.0 | 9.0 | 0.07 | 0.28 | 0.14 | 94 | 1006.7 |
| 20260506003800 | 52 | 338 | 6.0 | 10.0 | 0.06 | 0.25 | 0.11 | 94 | 1006.9 |
| 20260506003301 | 52 | 288 | 6.0 | 10.0 | 0.07 | 0.25 | 0.11 | 94 | 1006.9 |